星链-31113 (STARLINK-31113 )

导读

STARLINK-31113是美国SpaceX公司星链星座的一员,于2023年12月29日发射入轨。星链项目计划搭建近四万颗卫星的全球互联网星座,该卫星采用标准化设计,配备氪离子推进与自主碰撞规避系统,运行在近地轨道,为全球偏远地区提供低时延高速宽带接入服务,是星链全球覆盖网络的重要组成部分。

基本信息
目录编号:
58668
目录名称:
STARLINK-31113
国际标识:
2023-211B
轨道中心:
EARTH
卫星名称:
星链-31113
卫星全名:
星链-31113 (STARLINK-31113 )
卫星状态:
在轨 (已飞行902 天)
发射日期:
2023-12-29 UTC
国别 :
美国 (US)
星等 :
--
轨道信息
数据来源 国际轨道数据
星历时间: 2026-06-17T06:00:35+0800
1天前
查看轨道信息
半长轴: 6861.197km
偏心率: 0.000123
轨道倾角: 42.998°
近地点辐角 271.719°
升交点赤经 244.597°
平近点角 88.352°
近地点: 482.216km
远地点: 483.904km
周期: 94.267分钟
每日圈数: 15.275764
详细信息
固有亮度:
5
最大亮度:
0.3
卫星平台:
Starlink v2.0 mini
覆盖范围:
全球
运营商:
太空探索技术公司
运营商所在国:
美国
制造商(研发单位):
太空探索技术公司
制造商所在国:
美国
使用方式:
暂无
卫星简介
星链(Starlink)计划是由太空探索技术公司(SpaceX)提出的一个巨型低轨卫星互联网星座项目,计划在2019年至2024年间在太空搭建由约1.2万颗卫星组成的“星链”网络,其中1584颗将部署在地球上空550千米处的近地轨道,并从2020年开始工作。该卫星仍在工作。
2D轨道图
3D轨道图
轨道高度分析图
轨道倾角分析图
轨道综合分析图
查看轨道综合分析图